ePrivacy and GPDR Cookie Consent by Cookie Consent
EmailTwitter


Surface observations / United Kingdom / EGHI (03865)

Regions: Quebec | Canada | USA | Europe | France | UK | Elsewhere
Station
Display
Info & Location for EGHI (03865) | Help decoding METAR

Weather Conditions observed on 2021/06/20 at 16:20 UTC at SOUTHAMPTON WX C, UK (EGHI)

Sky conditions: variable clouds.

Temperature: 19.0 Celsius.

Dewpoint: 13.0 Celsius.

Relative Humidity: 68%

Winds: Variable at 6 km/h or 3 knots.

Mean Sea level Pressure: 100.70 kilopascals.

Horizontal visibility: 6.21 statute miles or 9.94 kilometers.

Coded METAR:

EGHI 201620Z VRB03KT 9999 FEW018 SCT022 19/13 Q1007=